Regional Weather Roundup
Issued by NWS

Home | Current Version | Previous Version | Text Only | Print | Product List | Glossary On
Versions: 1 2 3 4 5 6 7 8 9 10 11 12 13 14 15 16 17 18 19 20 21 22 23 24 25 26 27 28 29 30 31 32 33 34 35 36 37 38 39 40 41 42 43 44 45 46 47 48 49 50
300
ASUS42 KFFC 240203
RWRGA
WEATHER ROUNDUP FOR GEORGIA
NATIONAL WEATHER SERVICE PEACHTREE CITY GA
1000 PM EDT FRI JUN 23 2017

NOTE: "FAIR" INDICATES FEW OR NO CLOUDS BELOW 12,000 FEET WITH NO
SIGNIFICANT WEATHER AND/OR OBSTRUCTIONS TO VISIBILITY.

* = USE WITH CAUTION. THE STATIONS MARKED WITH AN ASTERISK MAY NOT
REPORT WEATHER SUCH AS PRECIPITATION, FOG, OR THUNDER AND ARE NOT
QUALITY CONTROLLED BY NWS.

THE REMARK "TC" DENOTES TEMPERATURE READING IN DEGREES CELSIUS.

GAZ001>058-240300-
NORTH GEORGIA

CITY           SKY/WX    TMP DP  RH WIND       PRES   REMARKS
ATLANTA        CLOUDY    74  72  93 W13       29.98F
ATHENS         CLEAR     81  73  76 SW7       29.93S
CHAMBLEE       LGT RAIN  74  71  91 W10       29.98R
PEACHTREE CITY LGT RAIN  73  72  96 VRB3      30.00R
ROME           CLOUDY    74  74 100 S6        29.94R
WEST ATLANTA   LGT RAIN  74  74 100 SW5       29.97S
GAINESVILLE    LGT RAIN  73  72  96 W12       29.99R
CARTERSVILLE   MOCLDY    72  72 100 VRB5      29.96R


CITY           SKY/WX    TMP DP  RH WIND       PRES   REMARKS
DALTON*        LGT RAIN  72  72 100 S5        29.94R
MARIETTA       MOCLDY    73  71  93 SW6       29.98R
KENNESAW*      LGT RAIN  72  72 100 SW7       29.95R
CANTON*        LGT RAIN  73  73 100 SW8       29.99R
$$

GAZ059>098-102>109-240300-
CENTRAL GEORGIA

CITY           SKY/WX    TMP DP  RH WIND       PRES   REMARKS
AUGUSTA-BUSH   PTCLDY    86  76  71 S9        29.94R HX  96
AUGUSTA-DANIEL MOCLDY    87  73  62 S9        29.96R HX  94
COLUMBUS       CLEAR     81  70  69 W8        29.97R
MACON          CLOUDY    83  72  69 SW8       29.97R
ROBINS AFB     CLOUDY    83  76  78 S6        29.96R HX  91


CITY           SKY/WX    TMP DP  RH WIND       PRES   REMARKS
LAGRANGE*      MOCLDY    75  74  98 CALM      30.00R
SYLVANIA*      CLOUDY    80  78  94 CALM      29.99R
MILLEDGEVILLE* CLOUDY    82  77  83 CALM      29.96R HX  91
$$

GAZ099>101-110>166-240300-
SOUTH GEORGIA

CITY           SKY/WX    TMP DP  RH WIND       PRES   REMARKS
SAVANNAH       MOCLDY    82  72  71 S10G17    30.00R
VALDOSTA       CLEAR     77  72  84 CALM      30.03R
ALMA           CLEAR     81  76  84 S3        30.00R
ST SIMONS      CLEAR     82  75  79 S13G22    30.01R
FT STEWART     PTCLDY    80  73  78 S5        29.98R
ALBANY         PTCLDY    83  76  79 S6        30.02R HX  91
HUNTER AFB     PTCLDY    82  75  81 S9        29.97R
MOODY AFB      CLEAR     82  72  73 SW8       30.01R
BRUNSWICK      CLEAR     82  75  78 S9        30.01R


CITY           SKY/WX    TMP DP  RH WIND       PRES   REMARKS
BAINBRIDGE*    CLEAR     90  79  70 SW6       30.02R HX 105
MOULTRIE*      CLEAR     81  73  78 S6        30.03R
VIDALIA*       CLOUDY    81  77  89 CALM      30.00R
WAYCROSS*      CLEAR     83  83 100 W3        30.01R HX 101
DOUGLAS*       PTCLDY    81  73  78 SW7       30.03R
$$




USA.gov is the U.S. government's official web portal to all federal, state and local government web resources and services.